Weather History for Atlanta, GA

Change the Weather History Date:

Monday, October 15, 2012

  Actual Average Record
Temperature  
Mean Temperature 66 °F 64 °F  
Max Temperature 77 °F 73 °F 86 °F (1935)
Min Temperature 55 °F 54 °F 36 °F (1978)
Degree Days  
Heating Degree Days 0 3  
Month to date heating degree days 20 33  
Since 1 July heating degree days 21 44  
Cooling Degree Days 1 2  
Month to date cooling degree days 40 46  
Year to date cooling degree days 2225 1851  
Growing Degree Days 17 (Base 50)    
Moisture  
Dew Point 57 °F    
Average Humidity 65    
Maximum Humidity 93    
Minimum Humidity 36    
Precipitation  
Precipitation 0.11 in 0.11 in 3.19 in (1914)
Month to date precipitation 1.73 1.82  
Year to date precipitation 29.33 40.12  
Sea Level Pressure  
Sea Level Pressure 29.93 in    
Wind  
Wind Speed 10 mph (West)    
Max Wind Speed 21 mph    
Max Gust Speed 33 mph    
Visibility 9 miles    
Events Rain , Thunderstorm    
T = Trace of Precipitation, MM = Missing Value Source: NWS Daily Summary

Daily Weather History Graph

Daily Weather History Graph

Search for Another Location

Airport:

Trip Planner

Search our weather history database for the weather conditions in past years. The results will help you decide how hot, cold, wet, or windy it might be!

Date:

Astronomy

Oct. 15, 2012 Rise Set
Actual Time 7:42 AM EDT 7:03 PM EDT
Civil Twilight 7:17 AM EDT 7:28 PM EDT
Nautical Twilight 6:48 AM EDT 7:57 PM EDT
Astronomical Twilight 6:20 AM EDT 8:26 PM EDT
Moon 7:49 AM EDT (10/15) 7:06 PM EDT (10/15)
Length of Visible Light 12h 10m
Length of Day
11h 20m
Waxing Crescent, 0% of the Moon is Illuminated
Oct 15
Waxing Crescent
Oct 21
First Quarter
Oct 29
Full
Nov 6
Last Quarter
Nov 13
New

Hourly Weather History & Observations

Time (EDT) Temp. Dew Point Humidity Pressure Visibility Wind Dir Wind Speed Gust Speed Precip Events Conditions
12:52 AM 68.0 °F 63.0 °F 84% 29.99 in 10.0 mi South 6.9 mph - N/A   Overcast
1:52 AM 66.9 °F 62.1 °F 84% 29.96 in 10.0 mi South 9.2 mph - N/A   Mostly Cloudy
2:52 AM 66.9 °F 62.1 °F 84% 29.96 in 10.0 mi South 6.9 mph - N/A   Mostly Cloudy
3:52 AM 66.9 °F 63.0 °F 87% 29.93 in 10.0 mi SSW 10.4 mph - N/A   Overcast
4:52 AM 66.9 °F 64.0 °F 90% 29.92 in 10.0 mi SSW 10.4 mph - N/A   Overcast
5:07 AM 66.2 °F 64.4 °F 94% 29.94 in 10.0 mi South 10.4 mph 23.0 mph N/A   Mostly Cloudy
5:25 AM 66.2 °F 64.4 °F 94% 29.94 in 10.0 mi SSW 9.2 mph - 0.00 in Rain , Thunderstorm Light Thunderstorms and Rain
5:52 AM 66.9 °F 64.0 °F 90% 29.93 in 4.0 mi SW 11.5 mph - 0.05 in Rain , Thunderstorm Thunderstorms and Rain
6:11 AM 66.2 °F 64.4 °F 94% 29.95 in 4.0 mi SW 9.2 mph - 0.05 in Rain , Thunderstorm Thunderstorms and Rain
6:36 AM 66.2 °F 64.4 °F 94% 29.94 in 6.0 mi SW 6.9 mph - 0.06 in Rain , Thunderstorm Light Thunderstorms and Rain
6:45 AM 66.2 °F 64.4 °F 94% 29.94 in 6.0 mi WSW 6.9 mph - 0.06 in Rain , Thunderstorm Light Thunderstorms and Rain
6:52 AM 66.0 °F 64.0 °F 93% 29.91 in 6.0 mi WSW 6.9 mph - 0.06 in Rain , Thunderstorm Light Thunderstorms and Rain
7:03 AM 64.4 °F 62.6 °F 94% 29.93 in 6.0 mi SW 5.8 mph - N/A   Overcast
7:37 AM 64.4 °F 62.6 °F 94% 29.95 in 6.0 mi SW 9.2 mph - N/A   Overcast
7:52 AM 64.4 °F 62.6 °F 94% 29.95 in 6.0 mi SW 5.8 mph - N/A   Mostly Cloudy
8:52 AM 66.0 °F 64.0 °F 93% 29.95 in 6.0 mi SW 6.9 mph - N/A   Mostly Cloudy
9:52 AM 66.9 °F 64.0 °F 90% 29.94 in 6.0 mi West 6.9 mph - N/A   Overcast
10:52 AM 66.9 °F 64.0 °F 90% 29.95 in 10.0 mi WNW 10.4 mph - N/A   Mostly Cloudy
11:52 AM 70.0 °F 61.0 °F 73% 29.95 in 10.0 mi WNW 11.5 mph - N/A   Mostly Cloudy
12:24 PM 71.6 °F 60.8 °F 69% 29.95 in 10.0 mi NW 13.8 mph - N/A   Scattered Clouds
12:52 PM 75.0 °F 60.1 °F 60% 29.92 in 10.0 mi West 11.5 mph - N/A   Scattered Clouds
1:52 PM 75.2 °F 55.4 °F 50% 29.93 in 10.0 mi WNW 19.6 mph 26.5 mph N/A   Scattered Clouds
2:52 PM 75.0 °F 52.0 °F 44% 29.89 in 10.0 mi NW 17.3 mph - N/A   Partly Cloudy
3:52 PM 75.0 °F 48.9 °F 40% 29.88 in 10.0 mi NNW 19.6 mph 26.5 mph N/A   Partly Cloudy
4:52 PM 75.0 °F 46.0 °F 36% 29.88 in 10.0 mi NW 13.8 mph 24.2 mph N/A   Partly Cloudy
5:52 PM 73.0 °F 46.0 °F 38% 29.88 in 10.0 mi NNW 12.7 mph 20.7 mph N/A   Partly Cloudy
6:52 PM 70.0 °F 45.0 °F 41% 29.89 in 10.0 mi NNW 6.9 mph - N/A   Partly Cloudy
7:52 PM 66.9 °F 43.0 °F 42% 29.91 in 10.0 mi NNW 9.2 mph - N/A   Clear
8:52 PM 63.0 °F 44.1 °F 50% 29.93 in 10.0 mi NNW 6.9 mph - N/A   Clear
9:52 PM 62.1 °F 43.0 °F 50% 29.94 in 10.0 mi NW 3.5 mph - N/A   Clear
10:52 PM 57.9 °F 44.1 °F 60% 29.94 in 10.0 mi NNW 9.2 mph - N/A   Clear
11:52 PM 57.2 °F 44.6 °F 63% 29.96 in 10.0 mi NW 6.9 mph - N/A   Clear